Weather History for Mt. Pocono, PA

Change the Weather History Date:

Thursday, February 21, 2013

  Actual Average Record
Temperature  
Mean Temperature 20 °F 27 °F  
Max Temperature 25 °F 35 °F 60 °F (1930)
Min Temperature 14 °F 19 °F -8 °F (1993)
Degree Days  
Heating Degree Days 45 38  
Month to date heating degree days 883 833  
Since 1 July heating degree days 4583 4864  
Cooling Degree Days 0 0  
Month to date cooling degree days 0 0  
Year to date cooling degree days 0 0  
Moisture  
Dew Point 9 °F    
Average Humidity 68    
Maximum Humidity 80    
Minimum Humidity 55    
Precipitation  
Precipitation T in 0.09 in 1.55 in (1954)
Month to date precipitation 0.61 1.74  
Year to date precipitation 2.66 4.59  
Sea Level Pressure  
Sea Level Pressure 30.06 in    
Wind  
Wind Speed 16 mph (NW)    
Max Wind Speed 29 mph    
Max Gust Speed 40 mph    
Visibility 9 miles    
Events Snow    
T = Trace of Precipitation, MM = Missing Value Source: NWS Daily Summary

Daily Weather History Graph

Daily Weather History Graph

Search for Another Location

Airport:

Trip Planner

Search our weather history database for the weather conditions in past years. The results will help you decide how hot, cold, wet, or windy it might be!

Date:

Astronomy

Feb. 21, 2013 Rise Set
Actual Time 6:47 AM EST 5:43 PM EST
Civil Twilight 6:19 AM EST 6:11 PM EST
Nautical Twilight 5:47 AM EST 6:43 PM EST
Astronomical Twilight 5:15 AM EST 7:15 PM EST
Moon 1:54 PM EST (2/21) 3:51 AM EST (2/21)
Length of Visible Light 11h 51m
Length of Day
10h 55m
Waxing Gibbous, 83% of the Moon is Illuminated
Feb 21
Waxing Gibbous
Feb 25
Full
Mar 4
Last Quarter
Mar 11
New
Mar 19
First Quarter

Hourly Weather History & Observations

Time (EST) Temp. Windchill Dew Point Humidity Pressure Visibility Wind Dir Wind Speed Gust Speed Precip Events Conditions
12:53 AM 17.1 °F 2.0 °F 8.1 °F 68% 29.97 in 9.0 mi NW 16.1 mph 23.0 mph 0.00 in Snow Light Snow
1:53 AM 17.1 °F 2.0 °F 8.1 °F 68% 29.96 in 10.0 mi WNW 16.1 mph 24.2 mph 0.00 in   Overcast
2:53 AM 16.0 °F 3.6 °F 9.0 °F 74% 29.97 in 5.0 mi WNW 10.4 mph - 0.00 in Snow Light Snow
3:53 AM 16.0 °F 2.9 °F 9.0 °F 74% 29.96 in 6.0 mi WNW 11.5 mph 24.2 mph 0.00 in Snow Light Snow
4:53 AM 16.0 °F 1.1 °F 8.1 °F 71% 29.97 in 4.0 mi NW 15.0 mph 27.6 mph 0.00 in Snow Light Snow
6:53 AM 17.1 °F 2.0 °F 7.0 °F 65% 29.99 in 9.0 mi NW 16.1 mph 24.2 mph 0.00 in   Overcast
7:53 AM 17.1 °F 0.6 °F 8.1 °F 68% 30.01 in 6.0 mi WNW 19.6 mph 29.9 mph 0.00 in Snow Light Snow
8:21 AM 17.6 °F 0.9 °F 8.6 °F 68% 29.91 in 2.5 mi NW 20.7 mph 29.9 mph 0.00 in Snow Light Snow
8:31 AM 17.6 °F 2.7 °F 8.6 °F 68% 29.91 in - NW 16.1 mph 31.1 mph 0.00 in Snow Light Snow
8:48 AM 17.6 °F 0.9 °F 8.6 °F 68% 29.92 in 2.5 mi WNW 20.7 mph 29.9 mph 0.00 in Snow Light Snow
9:06 AM 17.6 °F 1.7 °F 8.6 °F 68% 29.92 in - NW 18.4 mph 33.4 mph 0.00 in Snow Light Snow
9:53 AM 19.9 °F 3.9 °F 8.1 °F 60% 30.02 in 8.0 mi NW 20.7 mph 35.7 mph 0.00 in   Overcast
10:35 AM 19.4 °F 4.1 °F 8.6 °F 63% 29.94 in 10.0 mi NW 18.4 mph 33.4 mph 0.00 in   Scattered Clouds
10:53 AM 21.0 °F 6.2 °F 8.1 °F 57% 30.05 in 10.0 mi WNW 18.4 mph 36.8 mph 0.00 in   Scattered Clouds
11:02 AM 19.4 °F 6.6 °F 8.6 °F 63% 29.96 in 10.0 mi WNW 12.7 mph 29.9 mph N/A   Mostly Cloudy
11:53 AM 21.9 °F 6.2 °F 10.0 °F 60% 30.05 in 10.0 mi WNW 21.9 mph 29.9 mph 0.00 in   Overcast
12:53 PM 21.9 °F 8.2 °F 10.0 °F 60% 30.04 in 10.0 mi NW 16.1 mph 32.2 mph 0.00 in   Mostly Cloudy
1:53 PM 24.1 °F 9.4 °F 10.9 °F 57% 30.05 in 10.0 mi WNW 20.7 mph 29.9 mph 0.00 in   Mostly Cloudy
2:30 PM 24.8 °F 10.0 °F 12.2 °F 59% 29.96 in 10.0 mi NW 21.9 mph 29.9 mph N/A   Scattered Clouds
2:53 PM 24.1 °F 11.5 °F 12.0 °F 60% 30.06 in 10.0 mi NW 15.0 mph 26.5 mph N/A   Partly Cloudy
3:53 PM 23.0 °F 8.3 °F 10.9 °F 60% 30.10 in 10.0 mi NW 19.6 mph 32.2 mph N/A   Clear
4:53 PM 21.9 °F 8.7 °F 12.0 °F 66% 30.13 in 10.0 mi NNW 15.0 mph 33.4 mph N/A   Clear
5:53 PM 19.9 °F 4.8 °F 10.9 °F 68% 30.17 in 10.0 mi NW 18.4 mph 28.8 mph N/A   Overcast
6:20 PM 19.4 °F 7.9 °F 10.4 °F 68% 30.07 in 10.0 mi NNW 10.4 mph 33.4 mph N/A   Scattered Clouds
6:53 PM 18.0 °F 0.9 °F 10.0 °F 71% 30.22 in 10.0 mi NNW 21.9 mph 28.8 mph N/A   Partly Cloudy
7:53 PM 16.0 °F -0.4 °F 9.0 °F 74% 30.28 in 10.0 mi NNW 18.4 mph 27.6 mph N/A   Partly Cloudy
8:53 PM 16.0 °F 0.1 °F 9.0 °F 74% 30.30 in 10.0 mi NNW 17.3 mph 26.5 mph N/A   Clear
9:53 PM 15.1 °F 0.5 °F 9.0 °F 77% 30.30 in 10.0 mi NNW 13.8 mph 25.3 mph N/A   Clear
10:53 PM 14.0 °F 6.5 °F 9.0 °F 80% 30.31 in 10.0 mi NNW 4.6 mph - N/A   Clear
11:53 PM 14.0 °F 0.5 °F 10.0 °F 84% 30.30 in 10.0 mi North 11.5 mph 17.3 mph N/A   Clear